Погода в Увелье

Россия / Брянская область     52°46′59″N   31°39′28″E
темп.,
°C
ветер,
м/с
пор.,
м/с
влажн.,
%
обл.,
%
осадки,
мм/ч
давл.,
гПа
погр.,
м
17 апреля, сб
сб1700:00+6в359058 0.0 1015110
03:00+6вюв35915 0.0 1016110
06:00+4вюв22945 0.0 101732
09:00+8вюв247881 0.0 1018485
12:00+11вюв3462100 0.4 10181191
15:00+11юв2260100 0.8 10181084
18:00+9з3482100 2.3 1017669
21:00+8з5993100 7.3 1015479
18 апреля, вс
вс1800:00+8сз4894100 0.5 1013456
03:00+6всв7994100 0.6 1012427
06:00+4в81391100 0.0 1014747
09:00+5в81280100 0.0 1016915
12:00+7в71074100 0.0 10171239
15:00+9в596695 0.2 10171427
18:00+9вюв467017 0.2 1018787
21:00+5в22865 0.2 101912
19 апреля, пн
пн1900:00+6ссв249093 0.3 1019183
03:00+4ссв479526 0.3 1018174
06:00+4ссв499475 0.0 1018296
09:00+6св61190100 0.0 1018831
12:00+8св798296 0.1 1017901
15:00+8св6883100 0.2 1017814
18:00+8св698164 0.1 1016687
21:00+7св6118793 0.1 1016657
20 апреля, вт
вт2000:00+7св61191100 0.1 1014676
03:00+6всв61089100 0.1 1012434
06:00+6всв51192100 0.4 1011650
09:00+8всв6988100 0.8 1010754
12:00+8св71083100 0.1 1008784
15:00+7ссв71085100 0.1 1005683
18:00+5с81291100 0.9 1002657
21:00+3ссз81397100 3.0 999534
21 апреля, ср
ср2100:00+2сз81397100 2.1 997551
03:00+3зсз81497100 3.8 998681
06:00+4з81397100 0.9 9991070
09:00+5зюз91396100 1.9 10011129
12:00+8зюз91475100 0.5 10041437
15:00+10зюз81262100 0.6 10061874
18:00+10зюз5962100 0.0 10081026
21:00+7ююз4980100 0.0 1011172